Time,TemperatureF,DewpointF,PressureIn,WindDirection,WindDirectionDegrees,WindSpeedMPH,WindSpeedGustMPH,Humidity,HourlyPrecipIn,Conditions,Clouds,dailyrainin,SoftwareType,DateUTC
2013-06-17 00:02:00,68.6,63.0,29.72,WNW,294,0.0,-999.0,81,-99.99,,,0.00,weatherlink.com 1.10,2013-06-17 04:02:00,
2013-06-17 00:18:00,68.6,62.0,29.73,NNW,332,0.0,-999.0,80,-99.99,,,0.00,weatherlink.com 1.10,2013-06-17 04:18:00,
2013-06-17 00:32:00,68.3,62.0,29.73,NNW,332,0.0,-999.0,79,-99.99,,,0.00,weatherlink.com 1.10,2013-06-17 04:32:00,
2013-06-17 00:48:00,67.9,61.0,29.73,NNW,332,0.0,-999.0,78,-99.99,,,0.00,weatherlink.com 1.10,2013-06-17 04:48:00,
2013-06-17 01:02:00,67.5,60.0,29.73,NNW,333,0.0,-999.0,78,-99.99,,,0.00,weatherlink.com 1.10,2013-06-17 05:02:00,
2013-06-17 01:17:00,67.2,61.0,29.73,NNW,333,0.0,-999.0,79,-99.99,,,0.00,weatherlink.com 1.10,2013-06-17 05:17:00,
2013-06-17 01:32:00,66.7,60.0,29.74,NNW,333,0.0,-999.0,80,-99.99,,,0.00,weatherlink.com 1.10,2013-06-17 05:32:00,
2013-06-17 01:47:00,65.9,60.0,29.73,NNW,333,0.0,-999.0,81,-99.99,,,0.00,weatherlink.com 1.10,2013-06-17 05:47:00,
2013-06-17 02:02:00,65.2,60.0,29.74,NNW,333,0.0,-999.0,82,-99.99,,,0.00,weatherlink.com 1.10,2013-06-17 06:02:00,
2013-06-17 02:17:00,64.6,59.0,29.75,NNW,333,0.0,-999.0,83,-99.99,,,0.00,weatherlink.com 1.10,2013-06-17 06:17:00,
2013-06-17 02:33:00,64.3,59.0,29.74,NNW,333,0.0,-999.0,84,-99.99,,,0.00,weatherlink.com 1.10,2013-06-17 06:33:00,
2013-06-17 02:47:00,63.7,59.0,29.75,NNW,333,0.0,-999.0,85,-99.99,,,0.00,weatherlink.com 1.10,2013-06-17 06:47:00,
2013-06-17 03:02:00,63.2,59.0,29.75,NNW,333,0.0,-999.0,86,-99.99,,,0.00,weatherlink.com 1.10,2013-06-17 07:02:00,
2013-06-17 03:17:00,62.5,59.0,29.75,NNW,333,0.0,-999.0,87,-99.99,,,0.00,weatherlink.com 1.10,2013-06-17 07:17:00,
2013-06-17 03:32:00,62.0,59.0,29.75,NNW,333,0.0,-999.0,88,-99.99,,,0.00,weatherlink.com 1.10,2013-06-17 07:32:00,
2013-06-17 03:47:00,61.4,58.0,29.76,NNW,333,0.0,-999.0,89,-99.99,,,0.00,weatherlink.com 1.10,2013-06-17 07:47:00,
2013-06-17 04:02:00,60.9,58.0,29.75,NNW,333,0.0,-999.0,90,-99.99,,,0.00,weatherlink.com 1.10,2013-06-17 08:02:00,
2013-06-17 04:17:00,60.4,58.0,29.76,NNW,333,0.0,-999.0,91,-99.99,,,0.00,weatherlink.com 1.10,2013-06-17 08:17:00,
2013-06-17 04:33:00,60.3,58.0,29.76,NNW,333,0.0,-999.0,92,-99.99,,,0.00,weatherlink.com 1.10,2013-06-17 08:33:00,
2013-06-17 04:48:00,60.1,58.0,29.77,NNW,333,0.0,-999.0,92,-99.99,,,0.00,weatherlink.com 1.10,2013-06-17 08:48:00,
2013-06-17 05:03:00,59.9,58.0,29.77,NNW,333,0.0,-999.0,92,-99.99,,,0.00,weatherlink.com 1.10,2013-06-17 09:03:00,
2013-06-17 05:18:00,59.8,58.0,29.77,NNW,333,0.0,-999.0,93,-99.99,,,0.00,weatherlink.com 1.10,2013-06-17 09:18:00,
2013-06-17 05:33:00,59.8,58.0,29.78,NNW,333,0.0,-999.0,93,-99.99,,,0.00,weatherlink.com 1.10,2013-06-17 09:33:00,
2013-06-17 05:48:00,60.1,58.0,29.78,NNW,333,0.0,-999.0,94,-99.99,,,0.00,weatherlink.com 1.10,2013-06-17 09:48:00,
2013-06-17 06:02:00,60.4,59.0,29.78,NNW,328,0.0,-999.0,94,-99.99,,,0.00,weatherlink.com 1.10,2013-06-17 10:02:00,
2013-06-17 06:18:00,61.6,59.0,29.78,NW,318,0.0,-999.0,92,-99.99,,,0.00,weatherlink.com 1.10,2013-06-17 10:18:00,
2013-06-17 06:32:00,62.7,60.0,29.78,WNW,298,0.0,-999.0,90,-99.99,,,0.00,weatherlink.com 1.10,2013-06-17 10:32:00,
2013-06-17 06:47:00,63.9,60.0,29.79,West,261,1.0,-999.0,87,-99.99,,,0.00,weatherlink.com 1.10,2013-06-17 10:47:00,
2013-06-17 07:02:00,64.8,61.0,29.79,SW,217,0.0,-999.0,86,-99.99,,,0.00,weatherlink.com 1.10,2013-06-17 11:02:00,
2013-06-17 07:18:00,65.9,61.0,29.80,NW,311,0.0,-999.0,85,-99.99,,,0.00,weatherlink.com 1.10,2013-06-17 11:18:00,
2013-06-17 07:32:00,66.7,62.0,29.80,WSW,242,0.0,-999.0,84,-99.99,,,0.00,weatherlink.com 1.10,2013-06-17 11:32:00,
2013-06-17 07:47:00,67.7,62.0,29.80,WNW,292,0.0,-999.0,83,-99.99,,,0.00,weatherlink.com 1.10,2013-06-17 11:47:00,
2013-06-17 08:02:00,68.8,63.0,29.80,SSW,192,1.0,-999.0,82,-99.99,,,0.00,weatherlink.com 1.10,2013-06-17 12:02:00,
2013-06-17 08:17:00,70.1,64.0,29.80,West,271,0.0,-999.0,80,-99.99,,,0.00,weatherlink.com 1.10,2013-06-17 12:17:00,
2013-06-17 08:32:00,71.1,64.0,29.80,NNW,339,0.0,-999.0,79,-99.99,,,0.00,weatherlink.com 1.10,2013-06-17 12:32:00,
2013-06-17 08:48:00,72.2,64.0,29.80,NW,319,0.0,-999.0,76,-99.99,,,0.00,weatherlink.com 1.10,2013-06-17 12:48:00,
2013-06-17 09:02:00,72.9,64.0,29.79,NW,308,0.0,-999.0,74,-99.99,,,0.00,weatherlink.com 1.10,2013-06-17 13:02:00,
2013-06-17 09:17:00,73.5,64.0,29.79,North,351,0.0,-999.0,73,-99.99,,,0.00,weatherlink.com 1.10,2013-06-17 13:17:00,
2013-06-17 09:32:00,74.2,64.0,29.79,NNW,343,0.0,-999.0,71,-99.99,,,0.00,weatherlink.com 1.10,2013-06-17 13:32:00,
2013-06-17 09:47:00,75.0,64.0,29.79,NW,319,0.0,-999.0,69,-99.99,,,0.00,weatherlink.com 1.10,2013-06-17 13:47:00,
2013-06-17 10:03:00,75.9,65.0,29.78,West,259,1.0,-999.0,68,-99.99,,,0.00,weatherlink.com 1.10,2013-06-17 14:03:00,
2013-06-17 10:17:00,76.6,65.0,29.79,NW,311,0.0,-999.0,67,-99.99,,,0.00,weatherlink.com 1.10,2013-06-17 14:17:00,
2013-06-17 10:32:00,77.4,64.0,29.79,WSW,251,4.0,-999.0,63,-99.99,,,0.00,weatherlink.com 1.10,2013-06-17 14:32:00,
2013-06-17 10:47:00,78.3,64.0,29.78,West,280,2.0,-999.0,62,-99.99,,,0.00,weatherlink.com 1.10,2013-06-17 14:47:00,
2013-06-17 11:02:00,79.3,63.0,29.78,SW,224,1.0,-999.0,57,-99.99,,,0.00,weatherlink.com 1.10,2013-06-17 15:02:00,
2013-06-17 11:17:00,80.6,63.0,29.77,WNW,296,2.0,-999.0,55,-99.99,,,0.00,weatherlink.com 1.10,2013-06-17 15:17:00,
2013-06-17 11:32:00,81.9,63.0,29.77,SSW,208,1.0,-999.0,53,-99.99,,,0.00,weatherlink.com 1.10,2013-06-17 15:32:00,
2013-06-17 11:48:00,82.8,62.0,29.77,NW,320,2.0,-999.0,50,-99.99,,,0.00,weatherlink.com 1.10,2013-06-17 15:48:00,
2013-06-17 12:03:00,83.8,63.0,29.77,West,277,0.0,-999.0,49,-99.99,,,0.00,weatherlink.com 1.10,2013-06-17 16:03:00,
2013-06-17 12:18:00,84.7,62.0,29.77,South,190,0.0,-999.0,46,-99.99,,,0.00,weatherlink.com 1.10,2013-06-17 16:18:00,
2013-06-17 12:33:00,85.4,62.0,29.77,SSW,194,2.0,-999.0,46,-99.99,,,0.00,weatherlink.com 1.10,2013-06-17 16:33:00,
2013-06-17 12:47:00,85.9,63.0,29.76,NNW,340,6.0,-999.0,46,-99.99,,,0.00,weatherlink.com 1.10,2013-06-17 16:47:00,
2013-06-17 13:02:00,86.1,61.0,29.76,East,92,0.0,-999.0,43,-99.99,,,0.00,weatherlink.com 1.10,2013-06-17 17:02:00,
2013-06-17 13:17:00,86.5,61.0,29.76,WNW,284,0.0,-999.0,43,-99.99,,,0.00,weatherlink.com 1.10,2013-06-17 17:17:00,
2013-06-17 13:32:00,87.6,60.0,29.76,SW,219,2.0,-999.0,39,-99.99,,,0.00,weatherlink.com 1.10,2013-06-17 17:32:00,
2013-06-17 13:47:00,87.1,59.0,29.75,NW,314,2.0,-999.0,39,-99.99,,,0.00,weatherlink.com 1.10,2013-06-17 17:47:00,
2013-06-17 14:02:00,87.8,58.0,29.75,WSW,238,0.0,-999.0,36,-99.99,,,0.00,weatherlink.com 1.10,2013-06-17 18:02:00,
2013-06-17 14:17:00,88.0,59.0,29.74,NNW,334,1.0,-999.0,38,-99.99,,,0.00,weatherlink.com 1.10,2013-06-17 18:17:00,
2013-06-17 14:32:00,88.4,57.0,29.74,WNW,292,0.0,-999.0,35,-99.99,,,0.00,weatherlink.com 1.10,2013-06-17 18:32:00,
2013-06-17 14:48:00,88.6,58.0,29.74,West,281,0.0,-999.0,36,-99.99,,,0.00,weatherlink.com 1.10,2013-06-17 18:48:00,
2013-06-17 15:03:00,88.2,58.0,29.73,NW,325,0.0,-999.0,36,-99.99,,,0.00,weatherlink.com 1.10,2013-06-17 19:03:00,
2013-06-17 15:17:00,87.3,59.0,29.73,ESE,120,5.0,-999.0,38,-99.99,,,0.00,weatherlink.com 1.10,2013-06-17 19:17:00,
2013-06-17 15:32:00,85.8,59.0,29.73,WNW,290,1.0,-999.0,40,-99.99,,,0.00,weatherlink.com 1.10,2013-06-17 19:32:00,
2013-06-17 15:47:00,85.0,59.0,29.73,WSW,242,0.0,-999.0,42,-99.99,,,0.00,weatherlink.com 1.10,2013-06-17 19:47:00,
2013-06-17 16:02:00,84.4,58.0,29.73,WSW,257,0.0,-999.0,40,-99.99,,,0.00,weatherlink.com 1.10,2013-06-17 20:02:00,
2013-06-17 16:17:00,85.0,60.0,29.73,WSW,240,0.0,-999.0,43,-99.99,,,0.00,weatherlink.com 1.10,2013-06-17 20:17:00,
2013-06-17 16:33:00,83.4,60.0,29.73,NNW,327,0.0,-999.0,46,-99.99,,,0.00,weatherlink.com 1.10,2013-06-17 20:33:00,
2013-06-17 16:47:00,80.4,63.0,29.73,West,265,1.0,-999.0,56,-99.99,,,0.00,weatherlink.com 1.10,2013-06-17 20:47:00,
2013-06-17 17:02:00,75.5,66.0,29.75,NNW,340,0.0,-999.0,72,-99.99,,,0.10,weatherlink.com 1.10,2013-06-17 21:02:00,
2013-06-17 17:17:00,70.8,65.0,29.75,NW,315,0.0,-999.0,83,-99.99,,,0.16,weatherlink.com 1.10,2013-06-17 21:17:00,
2013-06-17 17:32:00,68.6,65.0,29.76,ENE,59,0.0,-999.0,87,-99.99,,,0.24,weatherlink.com 1.10,2013-06-17 21:32:00,
2013-06-17 17:47:00,67.5,65.0,29.77,WNW,301,5.0,-999.0,90,-99.99,,,0.25,weatherlink.com 1.10,2013-06-17 21:47:00,
2013-06-17 18:02:00,66.1,63.0,29.78,NW,317,1.0,-999.0,90,-99.99,,,0.52,weatherlink.com 1.10,2013-06-17 22:02:00,
2013-06-17 18:17:00,64.5,62.0,29.78,NNE,22,0.0,-999.0,91,-99.99,,,0.56,weatherlink.com 1.10,2013-06-17 22:17:00,
2013-06-17 18:33:00,64.2,63.0,29.80,NNE,22,0.0,-999.0,94,-99.99,,,0.58,weatherlink.com 1.10,2013-06-17 22:33:00,
2013-06-17 18:48:00,64.3,63.0,29.82,NNE,22,0.0,-999.0,95,-99.99,,,0.58,weatherlink.com 1.10,2013-06-17 22:48:00,
2013-06-17 19:03:00,64.6,64.0,29.82,NNE,22,0.0,-999.0,96,-99.99,,,0.58,weatherlink.com 1.10,2013-06-17 23:03:00,
2013-06-17 19:18:00,64.7,64.0,29.83,NNE,22,0.0,-999.0,96,-99.99,,,0.58,weatherlink.com 1.10,2013-06-17 23:18:00,
2013-06-17 19:33:00,64.7,64.0,29.84,North,355,0.0,-999.0,96,-99.99,,,0.59,weatherlink.com 1.10,2013-06-17 23:33:00,
2013-06-17 19:48:00,65.0,64.0,29.84,North,355,0.0,-999.0,96,-99.99,,,0.59,weatherlink.com 1.10,2013-06-17 23:48:00,
2013-06-17 20:03:00,65.1,64.0,29.82,North,355,0.0,-999.0,96,-99.99,,,0.59,weatherlink.com 1.10,2013-06-18 00:03:00,
2013-06-17 20:18:00,65.2,64.0,29.82,North,355,0.0,-999.0,97,-99.99,,,0.59,weatherlink.com 1.10,2013-06-18 00:18:00,
2013-06-17 20:33:00,65.1,64.0,29.82,North,355,0.0,-999.0,96,-99.99,,,0.59,weatherlink.com 1.10,2013-06-18 00:33:00,
2013-06-17 20:48:00,64.9,64.0,29.82,North,355,0.0,-999.0,96,-99.99,,,0.59,weatherlink.com 1.10,2013-06-18 00:48:00,
2013-06-17 21:03:00,64.6,64.0,29.83,North,355,0.0,-999.0,96,-99.99,,,0.59,weatherlink.com 1.10,2013-06-18 01:03:00,
2013-06-17 21:18:00,64.2,63.0,29.84,North,355,0.0,-999.0,96,-99.99,,,0.59,weatherlink.com 1.10,2013-06-18 01:18:00,
2013-06-17 21:33:00,63.9,63.0,29.84,North,355,0.0,-999.0,96,-99.99,,,0.59,weatherlink.com 1.10,2013-06-18 01:33:00,
2013-06-17 21:48:00,63.6,63.0,29.85,North,355,0.0,-999.0,96,-99.99,,,0.59,weatherlink.com 1.10,2013-06-18 01:48:00,
2013-06-17 22:03:00,63.5,62.0,29.85,North,355,0.0,-999.0,96,-99.99,,,0.59,weatherlink.com 1.10,2013-06-18 02:03:00,
2013-06-17 22:18:00,63.3,62.0,29.84,North,355,0.0,-999.0,96,-99.99,,,0.59,weatherlink.com 1.10,2013-06-18 02:18:00,
2013-06-17 22:33:00,63.1,62.0,29.84,West,260,0.0,-999.0,97,-99.99,,,0.59,weatherlink.com 1.10,2013-06-18 02:33:00,
2013-06-17 22:48:00,63.0,62.0,29.84,WSW,254,0.0,-999.0,96,-99.99,,,0.59,weatherlink.com 1.10,2013-06-18 02:48:00,
2013-06-17 23:03:00,62.8,62.0,29.84,West,269,0.0,-999.0,96,-99.99,,,0.59,weatherlink.com 1.10,2013-06-18 03:03:00,
2013-06-17 23:18:00,62.7,62.0,29.84,WNW,288,0.0,-999.0,96,-99.99,,,0.59,weatherlink.com 1.10,2013-06-18 03:18:00,
2013-06-17 23:33:00,62.6,62.0,29.84,WNW,287,0.0,-999.0,96,-99.99,,,0.59,weatherlink.com 1.10,2013-06-18 03:33:00,
2013-06-17 23:48:00,62.3,61.0,29.85,WNW,287,0.0,-999.0,96,-99.99,,,0.59,weatherlink.com 1.10,2013-06-18 03:48:00,